| time (UTC) | temp F | wind direction | speed knots | gust knots | rain 1hr in | rain 24hr in | rain mn in | humidity % | barometer mb |
| 20260508023305 | 66 | 117 | 3.5 | 4.3 | 0.00 | 0.00 | 0.00 | 69 | 1015.6 |
| 20260508022801 | 66 | 42 | 0.9 | 2.6 | 0.00 | 0.00 | 0.00 | 68 | 1015.8 |
| 20260508022257 | 66 | 42 | 0.9 | 1.7 | 0.00 | 0.00 | 0.00 | 68 | 1015.9 |
| 20260508021755 | 66 | 36 | 0.9 | 2.6 | 0.00 | 0.00 | 0.00 | 67 | 1015.5 |
| 20260508021250 | 66 | 40 | 0.9 | 1.7 | 0.00 | 0.00 | 0.00 | 66 | 1015.9 |
| 20260508020747 | 67 | 45 | 0.9 | 1.7 | 0.00 | 0.00 | 0.00 | 66 | 1015.6 |
| 20260508020245 | 67 | 52 | 0.9 | 1.7 | 0.00 | 0.00 | 0.00 | 66 | 1015.6 |
| 20260508015741 | 66 | 60 | 2.6 | 2.6 | 0.00 | 0.00 | 0.00 | 66 | 1015.5 |
| 20260508015239 | 67 | 46 | 1.7 | 2.6 | 0.00 | 0.00 | 0.00 | 66 | 1015.4 |
| 20260508014735 | 67 | 45 | 1.7 | 2.6 | 0.00 | 0.00 | 0.00 | 65 | 1015.4 |
| 20260508014232 | 67 | 34 | 0.9 | 1.7 | 0.00 | 0.00 | 0.00 | 66 | 1015.4 |
| 20260508013728 | 67 | 40 | 0.9 | 1.7 | 0.00 | 0.00 | 0.00 | 66 | 1015.5 |
| 20260508013225 | 67 | 36 | 0.9 | 0.9 | 0.00 | 0.00 | 0.00 | 65 | 1015.6 |
| 20260508012722 | 67 | 141 | 2.6 | 2.6 | 0.00 | 0.00 | 0.00 | 65 | 1015.7 |
| 20260508012219 | 67 | 45 | 0.9 | 1.7 | 0.00 | 0.00 | 0.00 | 65 | 1015.6 |
| 20260508011717 | 67 | 82 | 1.7 | 1.7 | 0.00 | 0.00 | 0.00 | 64 | 1015.4 |
| 20260508011215 | 67 | 46 | 1.7 | 1.7 | 0.00 | 0.00 | 0.00 | 64 | 1015.4 |
| 20260508010711 | 67 | 153 | 1.7 | 2.6 | 0.00 | 0.00 | 0.00 | 63 | 1015.6 |
| 20260508010209 | 68 | 200 | 1.7 | 2.6 | 0.00 | 0.00 | 0.00 | 63 | 1015.5 |
| 20260508005706 | 68 | 171 | 2.6 | 2.6 | 0.00 | 0.00 | 0.00 | 62 | 1015.4 |
| 20260508005203 | 67 | 64 | 1.7 | 2.6 | 0.00 | 0.00 | 0.00 | 62 | 1015.4 |
| 20260508004658 | 67 | 184 | 3.5 | 4.3 | 0.00 | 0.00 | 0.00 | 62 | 1015.2 |
| 20260508004154 | 68 | 106 | 0.9 | 1.7 | 0.00 | 0.00 | 0.00 | 62 | 1015.4 |
| 20260508003652 | 68 | 110 | 2.6 | 2.6 | 0.00 | 0.00 | 0.00 | 62 | 1015.5 |
| 20260508003149 | 68 | 101 | 1.7 | 2.6 | 0.00 | 0.00 | 0.00 | 62 | 1015.6 |
| 20260508002645 | 68 | 164 | 1.7 | 5.2 | 0.00 | 0.00 | 0.00 | 61 | 1015.5 |
| 20260508002143 | 68 | 236 | 2.6 | 4.3 | 0.00 | 0.00 | 0.00 | 62 | 1015.5 |
| 20260508001638 | 68 | 40 | 0.9 | 2.6 | 0.00 | 0.00 | 0.00 | 61 | 1015.7 |
| 20260508001134 | 68 | 215 | 2.6 | 2.6 | 0.00 | 0.00 | 0.00 | 61 | 1015.7 |
| 20260508000630 | 68 | 188 | 3.5 | 4.3 | 0.00 | 0.00 | 0.00 | 61 | 1015.7 |
| 20260508000128 | 68 | 210 | 2.6 | 2.6 | 0.00 | 0.00 | 0.00 | 61 | 1015.8 |
| 20260507235624 | 68 | 210 | 2.6 | 4.3 | 0.00 | 0.00 | 0.00 | 60 | 1015.5 |
| 20260507235122 | 68 | 236 | 2.6 | 5.2 | 0.00 | 0.00 | 0.00 | 60 | 1015.6 |
| 20260507234618 | 68 | 168 | 2.6 | 4.3 | 0.00 | 0.00 | 0.00 | 60 | 1015.8 |
| 20260507234115 | 68 | 206 | 4.3 | 6.1 | 0.00 | 0.00 | 0.00 | 60 | 1015.6 |
| 20260507233612 | 69 | 213 | 3.5 | 4.3 | 0.00 | 0.00 | 0.00 | 59 | 1015.7 |
| 20260507233110 | 68 | 90 | 2.6 | 5.2 | 0.00 | 0.00 | 0.00 | 60 | 1015.7 |
| 20260507232611 | 69 | 161 | 2.6 | 6.1 | 0.00 | 0.00 | 0.00 | 60 | 1015.7 |
| 20260507232104 | 69 | 170 | 3.5 | 6.1 | 0.00 | 0.00 | 0.00 | 60 | 1015.6 |
| 20260507231600 | 69 | 166 | 3.5 | 5.2 | 0.00 | 0.00 | 0.00 | 60 | 1015.7 |
| 20260507231057 | 69 | 150 | 2.6 | 2.6 | 0.00 | 0.00 | 0.00 | 59 | 1015.7 |
| 20260507230554 | 69 | 181 | 2.6 | 5.2 | 0.00 | 0.00 | 0.00 | 59 | 1015.8 |
| 20260507230050 | 69 | 184 | 5.2 | 5.2 | 0.00 | 0.00 | 0.00 | 59 | 1015.9 |
| 20260507225545 | 69 | 171 | 4.3 | 6.1 | 0.00 | 0.00 | 0.00 | 59 | 1015.7 |
| 20260507225042 | 69 | 58 | 1.7 | 5.2 | 0.00 | 0.00 | 0.00 | 59 | 1015.8 |
| 20260507224538 | 69 | 202 | 2.6 | 6.1 | 0.00 | 0.00 | 0.00 | 58 | 1016.0 |
| 20260507224035 | 69 | 153 | 4.3 | 5.2 | 0.00 | 0.00 | 0.00 | 58 | 1016.1 |
| 20260507223531 | 69 | 197 | 4.3 | 7.0 | 0.00 | 0.00 | 0.00 | 58 | 1015.9 |
| 20260507223028 | 69 | 164 | 3.5 | 5.2 | 0.00 | 0.00 | 0.00 | 58 | 1016.0 |
| 20260507222525 | 69 | 233 | 2.6 | 4.3 | 0.00 | 0.00 | 0.00 | 58 | 1016.0 |
| 20260507222021 | 69 | 102 | 0.9 | 6.1 | 0.00 | 0.00 | 0.00 | 57 | 1016.2 |
| 20260507221518 | 69 | 219 | 2.6 | 4.3 | 0.00 | 0.00 | 0.00 | 57 | 1016.0 |
| 20260507221015 | 70 | 83 | 1.7 | 5.2 | 0.00 | 0.00 | 0.00 | 57 | 1015.8 |
| 20260507220512 | 69 | 153 | 4.3 | 6.1 | 0.00 | 0.00 | 0.00 | 57 | 1016.0 |
| 20260507220009 | 70 | 221 | 2.6 | 6.1 | 0.00 | 0.00 | 0.00 | 57 | 1016.0 |
| 20260507215505 | 70 | 225 | 1.7 | 4.3 | 0.00 | 0.00 | 0.00 | 56 | 1016.2 |
| 20260507215003 | 71 | 149 | 4.3 | 7.8 | 0.00 | 0.00 | 0.00 | 55 | 1016.1 |
| 20260507214500 | 70 | 35 | 0.0 | 4.3 | 0.00 | 0.00 | 0.00 | 53 | 1016.2 |
| 20260507213955 | 70 | 141 | 1.7 | 5.2 | 0.00 | 0.00 | 0.00 | 53 | 1016.0 |
| 20260507213452 | 70 | 44 | 1.7 | 5.2 | 0.00 | 0.00 | 0.00 | 54 | 1016.2 |
| 20260507212949 | 71 | 173 | 4.3 | 6.1 | 0.00 | 0.00 | 0.00 | 53 | 1016.4 |
| 20260507212445 | 70 | 192 | 5.2 | 8.7 | 0.00 | 0.00 | 0.00 | 53 | 1016.3 |
| 20260507211942 | 71 | 201 | 6.1 | 7.8 | 0.00 | 0.00 | 0.00 | 53 | 1016.5 |
| 20260507211438 | 71 | 202 | 6.1 | 7.0 | 0.00 | 0.00 | 0.00 | 53 | 1016.7 |
| 20260507210935 | 71 | 191 | 5.2 | 6.1 | 0.00 | 0.00 | 0.00 | 52 | 1016.6 |
| 20260507210432 | 71 | 104 | 2.6 | 4.3 | 0.00 | 0.00 | 0.00 | 52 | 1016.7 |
| 20260507205929 | 71 | 214 | 4.3 | 5.2 | 0.00 | 0.00 | 0.00 | 51 | 1016.5 |
| 20260507205426 | 71 | 95 | 3.5 | 5.2 | 0.00 | 0.00 | 0.00 | 51 | 1016.6 |
| 20260507204922 | 71 | 186 | 2.6 | 6.1 | 0.00 | 0.00 | 0.00 | 51 | 1016.5 |
| 20260507204419 | 71 | 74 | 4.3 | 6.1 | 0.00 | 0.00 | 0.00 | 51 | 1016.5 |
| 20260507203916 | 71 | 51 | 2.6 | 5.2 | 0.00 | 0.00 | 0.00 | 51 | 1016.4 |
| 20260507203414 | 71 | 83 | 6.1 | 7.8 | 0.00 | 0.00 | 0.00 | 50 | 1016.3 |
| 20260507202910 | 72 | 99 | 3.5 | 7.0 | 0.00 | 0.00 | 0.00 | 50 | 1016.4 |
| 20260507202407 | 71 | 202 | 4.3 | 6.1 | 0.00 | 0.00 | 0.00 | 51 | 1016.3 |
| 20260507201903 | 71 | 180 | 2.6 | 4.3 | 0.00 | 0.00 | 0.00 | 50 | 1016.8 |
| 20260507201358 | 72 | 100 | 3.5 | 6.1 | 0.00 | 0.00 | 0.00 | 49 | 1016.8 |
| 20260507200854 | 71 | 36 | 1.7 | 2.6 | 0.00 | 0.00 | 0.00 | 49 | 1016.8 |
| 20260507200351 | 73 | 58 | 5.2 | 6.1 | 0.00 | 0.00 | 0.00 | 48 | 1016.7 |
| 20260507195847 | 72 | 29 | 0.9 | 1.7 | 0.00 | 0.00 | 0.00 | 48 | 1017.0 |
| 20260507195344 | 72 | 41 | 1.7 | 4.3 | 0.00 | 0.00 | 0.00 | 48 | 1017.0 |
| 20260507194842 | 73 | 89 | 4.3 | 5.2 | 0.00 | 0.00 | 0.00 | 46 | 1016.9 |
| 20260507194338 | 72 | 32 | 2.6 | 4.3 | 0.00 | 0.00 | 0.00 | 48 | 1017.2 |
| 20260507193834 | 72 | 17 | 2.6 | 5.2 | 0.00 | 0.00 | 0.00 | 48 | 1017.2 |
| 20260507193332 | 72 | 190 | 2.6 | 6.1 | 0.00 | 0.00 | 0.00 | 47 | 1017.3 |
| 20260507192827 | 73 | 21 | 0.9 | 4.3 | 0.00 | 0.00 | 0.00 | 46 | 1017.4 |
| 20260507192324 | 73 | 320 | 1.7 | 5.2 | 0.00 | 0.00 | 0.00 | 47 | 1017.5 |
| 20260507191820 | 72 | 112 | 1.7 | 5.2 | 0.00 | 0.00 | 0.00 | 46 | 1017.6 |
| 20260507191317 | 72 | 15 | 5.2 | 7.0 | 0.00 | 0.00 | 0.00 | 46 | 1017.6 |
| 20260507190814 | 71 | 35 | 5.2 | 6.1 | 0.00 | 0.00 | 0.00 | 46 | 1017.6 |
| 20260507190313 | 72 | 46 | 4.3 | 7.0 | 0.00 | 0.00 | 0.00 | 47 | 1017.9 |
| 20260507185811 | 70 | 319 | 2.6 | 2.6 | 0.00 | 0.00 | 0.00 | 47 | 1017.7 |
| 20260507185307 | 71 | 60 | 6.1 | 8.7 | 0.00 | 0.00 | 0.00 | 47 | 1017.7 |
| 20260507184804 | 71 | 350 | 1.7 | 6.1 | 0.00 | 0.00 | 0.00 | 47 | 1017.9 |
| 20260507184303 | 71 | 38 | 1.7 | 6.1 | 0.00 | 0.00 | 0.00 | 48 | 1017.8 |
| 20260507183759 | 71 | 25 | 4.3 | 9.6 | 0.00 | 0.00 | 0.00 | 47 | 1017.5 |
| 20260507183256 | 69 | 112 | 2.6 | 5.2 | 0.00 | 0.00 | 0.00 | 48 | 1017.9 |
| 20260507182754 | 70 | 13 | 3.5 | 9.6 | 0.00 | 0.00 | 0.00 | 48 | 1017.7 |
| 20260507182248 | 70 | 33 | 7.0 | 11.3 | 0.00 | 0.00 | 0.00 | 47 | 1018.2 |
| 20260507181745 | 69 | 8 | 0.9 | 6.1 | 0.00 | 0.00 | 0.00 | 49 | 1018.2 |
| 20260507181242 | 69 | 19 | 2.6 | 7.8 | 0.00 | 0.00 | 0.00 | 49 | 1018.1 |
| 20260507180738 | 69 | 53 | 5.2 | 11.3 | 0.00 | 0.00 | 0.00 | 49 | 1018.3 |
| 20260507180235 | 69 | 28 | 6.1 | 7.0 | 0.00 | 0.00 | 0.00 | 48 | 1018.3 |
| 20260507175730 | 69 | 59 | 2.6 | 7.8 | 0.00 | 0.00 | 0.00 | 49 | 1017.9 |
| 20260507175228 | 69 | 38 | 4.3 | 7.0 | 0.00 | 0.00 | 0.00 | 49 | 1018.4 |
| 20260507174725 | 68 | 355 | 4.3 | 7.8 | 0.00 | 0.00 | 0.00 | 49 | 1018.7 |
| 20260507174223 | 68 | 59 | 3.5 | 7.0 | 0.00 | 0.00 | 0.00 | 52 | 1018.6 |
| 20260507173721 | 68 | 70 | 7.0 | 9.6 | 0.00 | 0.00 | 0.00 | 51 | 1018.6 |
| 20260507173217 | 68 | 50 | 1.7 | 7.0 | 0.00 | 0.00 | 0.00 | 53 | 1018.9 |
| 20260507172714 | 68 | 16 | 4.3 | 7.0 | 0.00 | 0.00 | 0.00 | 53 | 1018.8 |
| 20260507172211 | 67 | 15 | 2.6 | 4.3 | 0.00 | 0.00 | 0.00 | 54 | 1019.1 |
| 20260507171710 | 67 | 22 | 2.6 | 7.0 | 0.00 | 0.00 | 0.00 | 53 | 1019.2 |
| 20260507171209 | 67 | 13 | 7.8 | 11.3 | 0.00 | 0.00 | 0.00 | 54 | 1019.3 |
| 20260507170705 | 67 | 21 | 4.3 | 7.0 | 0.00 | 0.00 | 0.00 | 56 | 1019.4 |
| 20260507170202 | 68 | 34 | 4.3 | 6.1 | 0.00 | 0.00 | 0.00 | 54 | 1019.6 |
| 20260507165658 | 67 | 327 | 2.6 | 7.0 | 0.00 | 0.00 | 0.00 | 55 | 1019.8 |
| 20260507165154 | 67 | 0 | 4.3 | 8.7 | 0.00 | 0.00 | 0.00 | 56 | 1019.9 |
| 20260507164650 | 66 | 64 | 2.6 | 4.3 | 0.00 | 0.00 | 0.00 | 56 | 1019.8 |
| 20260507164147 | 66 | 19 | 6.1 | 8.7 | 0.00 | 0.00 | 0.00 | 56 | 1020.2 |
| 20260507163644 | 66 | 31 | 0.9 | 4.3 | 0.00 | 0.00 | 0.00 | 57 | 1019.8 |
| 20260507163142 | 66 | 25 | 3.5 | 6.1 | 0.00 | 0.00 | 0.00 | 57 | 1020.1 |
| 20260507162637 | 64 | 0 | 2.6 | 4.3 | 0.00 | 0.00 | 0.00 | 59 | 1020.2 |
| 20260507162129 | 66 | 14 | 7.0 | 7.8 | 0.00 | 0.00 | 0.00 | 57 | 1020.1 |
| 20260507161625 | 65 | 25 | 3.5 | 7.8 | 0.00 | 0.00 | 0.00 | 59 | 1020.2 |
| 20260507161122 | 64 | 33 | 2.6 | 6.1 | 0.00 | 0.00 | 0.00 | 62 | 1020.2 |
| 20260507160618 | 64 | 31 | 6.1 | 7.8 | 0.00 | 0.00 | 0.00 | 61 | 1020.1 |
| 20260507160115 | 64 | 22 | 7.0 | 11.3 | 0.00 | 0.00 | 0.00 | 61 | 1019.9 |
| 20260507155610 | 64 | 36 | 4.3 | 7.8 | 0.00 | 0.00 | 0.00 | 62 | 1020.1 |
| 20260507155107 | 64 | 63 | 4.3 | 6.1 | 0.00 | 0.00 | 0.00 | 62 | 1020.1 |
| 20260507154604 | 65 | 67 | 2.6 | 7.0 | 0.00 | 0.00 | 0.00 | 62 | 1020.1 |
| 20260507154101 | 64 | 23 | 2.6 | 5.2 | 0.00 | 0.00 | 0.00 | 64 | 1020.1 |
| 20260507153558 | 64 | 3 | 2.6 | 5.2 | 0.00 | 0.00 | 0.00 | 64 | 1020.4 |
| 20260507153054 | 64 | 9 | 2.6 | 7.0 | 0.00 | 0.00 | 0.00 | 64 | 1020.4 |
| 20260507152550 | 64 | 16 | 0.0 | 7.0 | 0.00 | 0.00 | 0.00 | 64 | 1020.3 |
| 20260507152046 | 64 | 0 | 1.7 | 4.3 | 0.00 | 0.00 | 0.00 | 64 | 1020.4 |
| 20260507151543 | 63 | 346 | 3.5 | 4.3 | 0.00 | 0.00 | 0.00 | 65 | 1020.6 |
| 20260507151040 | 63 | 12 | 2.6 | 5.2 | 0.00 | 0.00 | 0.00 | 65 | 1020.6 |
| 20260507150537 | 63 | 359 | 0.9 | 5.2 | 0.00 | 0.00 | 0.00 | 66 | 1020.3 |
| 20260507150034 | 62 | 25 | 2.6 | 5.2 | 0.00 | 0.00 | 0.00 | 67 | 1020.5 |
| 20260507145528 | 63 | 21 | 4.3 | 7.8 | 0.00 | 0.00 | 0.00 | 66 | 1020.6 |
| 20260507145027 | 62 | 28 | 0.9 | 0.9 | 0.00 | 0.00 | 0.00 | 68 | 1020.5 |
| 20260507144523 | 61 | 29 | 1.7 | 5.2 | 0.00 | 0.00 | 0.00 | 70 | 1020.7 |
| 20260507144021 | 62 | 20 | 0.9 | 4.3 | 0.00 | 0.00 | 0.00 | 69 | 1020.7 |
| 20260507143518 | 61 | 13 | 1.7 | 6.1 | 0.00 | 0.00 | 0.00 | 70 | 1020.5 |
| 20260507143015 | 61 | 20 | 0.0 | 4.3 | 0.00 | 0.00 | 0.00 | 71 | 1020.6 |
| 20260507142510 | 61 | 0 | 5.2 | 8.7 | 0.00 | 0.00 | 0.00 | 71 | 1020.5 |
| 20260507142007 | 60 | 35 | 1.7 | 5.2 | 0.00 | 0.00 | 0.00 | 72 | 1020.7 |
| 20260507141503 | 61 | 357 | 3.5 | 5.2 | 0.00 | 0.00 | 0.00 | 71 | 1020.6 |
| 20260507141000 | 60 | 24 | 0.9 | 5.2 | 0.00 | 0.00 | 0.00 | 73 | 1020.6 |
| 20260507140456 | 60 | 1 | 2.6 | 6.1 | 0.00 | 0.00 | 0.00 | 73 | 1020.8 |
| 20260507135954 | 60 | 15 | 1.7 | 5.2 | 0.00 | 0.00 | 0.00 | 73 | 1020.9 |
| 20260507135451 | 61 | 356 | 1.7 | 2.6 | 0.00 | 0.00 | 0.00 | 73 | 1021.0 |
| 20260507134948 | 62 | 346 | 3.5 | 5.2 | 0.00 | 0.00 | 0.00 | 71 | 1021.0 |
| 20260507134444 | 59 | 22 | 0.0 | 1.7 | 0.00 | 0.00 | 0.00 | 75 | 1021.1 |
| 20260507133941 | 59 | 22 | 0.0 | 1.7 | 0.00 | 0.00 | 0.00 | 78 | 1021.1 |
| 20260507133436 | 58 | 348 | 0.9 | 1.7 | 0.00 | 0.00 | 0.00 | 79 | 1021.0 |
| 20260507132936 | 58 | 305 | 2.6 | 2.6 | 0.00 | 0.00 | 0.00 | 80 | 1021.2 |
| 20260507132431 | 57 | 256 | 4.3 | 5.2 | 0.00 | 0.00 | 0.00 | 81 | 1021.5 |
| 20260507131928 | 57 | 304 | 2.6 | 2.6 | 0.00 | 0.00 | 0.00 | 81 | 1021.1 |
| 20260507131425 | 57 | 321 | 1.7 | 2.6 | 0.00 | 0.00 | 0.00 | 81 | 1021.2 |
| 20260507130922 | 57 | 285 | 2.6 | 2.6 | 0.00 | 0.00 | 0.00 | 82 | 1021.1 |
| 20260507130419 | 56 | 248 | 3.5 | 4.3 | 0.00 | 0.00 | 0.00 | 82 | 1021.0 |
| 20260507125918 | 57 | 261 | 2.6 | 2.6 | 0.00 | 0.00 | 0.00 | 82 | 1021.0 |
| 20260507125415 | 57 | 264 | 2.6 | 4.3 | 0.00 | 0.00 | 0.00 | 82 | 1021.1 |
| 20260507124913 | 57 | 290 | 2.6 | 5.2 | 0.00 | 0.00 | 0.00 | 82 | 1021.1 |
| 20260507124408 | 57 | 262 | 1.7 | 2.6 | 0.00 | 0.00 | 0.00 | 82 | 1021.1 |
| 20260507123907 | 57 | 276 | 2.6 | 2.6 | 0.00 | 0.00 | 0.00 | 82 | 1021.1 |
| 20260507123404 | 56 | 6 | 0.0 | 0.9 | 0.00 | 0.00 | 0.00 | 83 | 1020.8 |
| 20260507122900 | 56 | 14 | 0.9 | 1.7 | 0.00 | 0.00 | 0.00 | 83 | 1020.8 |
| 20260507122355 | 56 | 39 | 1.7 | 1.7 | 0.00 | 0.00 | 0.00 | 84 | 1020.7 |
| 20260507121852 | 56 | 46 | 1.7 | 1.7 | 0.00 | 0.00 | 0.00 | 84 | 1020.9 |
| 20260507121347 | 55 | 11 | 0.0 | 0.0 | 0.00 | 0.00 | 0.00 | 84 | 1020.9 |
| 20260507120844 | 55 | 16 | 0.9 | 1.7 | 0.00 | 0.00 | 0.00 | 84 | 1020.7 |
| 20260507120341 | 55 | 3 | 0.0 | 0.0 | 0.00 | 0.00 | 0.00 | 84 | 1020.7 |
| 20260507115837 | 55 | 3 | 0.0 | 0.9 | 0.00 | 0.00 | 0.00 | 84 | 1020.6 |
| 20260507115332 | 55 | 1 | 0.0 | 0.0 | 0.00 | 0.00 | 0.00 | 84 | 1020.4 |
| 20260507114828 | 55 | 344 | 3.5 | 5.2 | 0.00 | 0.00 | 0.00 | 85 | 1020.8 |
| 20260507114326 | 55 | 1 | 1.7 | 4.3 | 0.00 | 0.00 | 0.00 | 85 | 1020.8 |
| 20260507113823 | 55 | 314 | 2.6 | 4.3 | 0.00 | 0.00 | 0.00 | 85 | 1020.3 |
| 20260507113320 | 55 | 342 | 4.3 | 6.1 | 0.00 | 0.00 | 0.00 | 86 | 1020.6 |
| 20260507112818 | 55 | 353 | 1.7 | 2.6 | 0.00 | 0.00 | 0.00 | 86 | 1020.3 |
| 20260507112314 | 55 | 321 | 1.7 | 4.3 | 0.00 | 0.00 | 0.00 | 86 | 1020.2 |
| 20260507111812 | 55 | 357 | 2.6 | 4.3 | 0.00 | 0.00 | 0.00 | 86 | 1020.2 |
| 20260507111308 | 55 | 10 | 0.9 | 4.3 | 0.00 | 0.00 | 0.00 | 86 | 1019.9 |
| 20260507110805 | 55 | 0 | 1.7 | 4.3 | 0.00 | 0.00 | 0.00 | 86 | 1020.2 |
| 20260507110301 | 55 | 352 | 0.9 | 2.6 | 0.00 | 0.00 | 0.00 | 85 | 1020.0 |
| 20260507105758 | 55 | 357 | 1.7 | 1.7 | 0.00 | 0.00 | 0.00 | 85 | 1020.1 |
| 20260507105254 | 55 | 356 | 0.0 | 0.9 | 0.00 | 0.00 | 0.00 | 86 | 1019.9 |
| 20260507104752 | 55 | 340 | 0.9 | 2.6 | 0.00 | 0.00 | 0.00 | 86 | 1019.8 |
| 20260507104248 | 55 | 13 | 0.9 | 2.6 | 0.00 | 0.00 | 0.00 | 86 | 1019.4 |
| 20260507103744 | 55 | 9 | 1.7 | 2.6 | 0.00 | 0.00 | 0.00 | 86 | 1019.3 |
| 20260507103240 | 55 | 19 | 0.9 | 2.6 | 0.00 | 0.00 | 0.00 | 85 | 1019.2 |
| 20260507102737 | 55 | 4 | 1.7 | 4.3 | 0.00 | 0.00 | 0.00 | 85 | 1019.1 |
| 20260507102234 | 55 | 11 | 2.6 | 4.3 | 0.00 | 0.00 | 0.00 | 84 | 1019.3 |
| 20260507101730 | 55 | 358 | 1.7 | 5.2 | 0.00 | 0.00 | 0.00 | 84 | 1019.2 |
| 20260507101225 | 55 | 8 | 0.9 | 4.3 | 0.00 | 0.00 | 0.00 | 84 | 1019.1 |
| 20260507100722 | 55 | 18 | 3.5 | 4.3 | 0.00 | 0.00 | 0.00 | 83 | 1018.9 |
| 20260507100221 | 55 | 25 | 2.6 | 4.3 | 0.00 | 0.00 | 0.00 | 83 | 1018.9 |
| 20260507095719 | 55 | 22 | 0.9 | 2.6 | 0.00 | 0.00 | 0.00 | 83 | 1018.9 |
| 20260507095215 | 55 | 37 | 2.6 | 5.2 | 0.00 | 0.00 | 0.00 | 82 | 1018.8 |
| 20260507094712 | 55 | 33 | 3.5 | 5.2 | 0.00 | 0.00 | 0.00 | 82 | 1018.7 |
| 20260507094209 | 55 | 26 | 1.7 | 4.3 | 0.00 | 0.00 | 0.00 | 82 | 1018.6 |
| 20260507093705 | 55 | 17 | 2.6 | 4.3 | 0.00 | 0.00 | 0.00 | 82 | 1018.7 |
| 20260507093204 | 55 | 19 | 2.6 | 5.2 | 0.00 | 0.00 | 0.00 | 82 | 1018.7 |
| 20260507092701 | 55 | 22 | 1.7 | 2.6 | 0.00 | 0.00 | 0.00 | 82 | 1018.7 |
| 20260507092157 | 55 | 18 | 1.7 | 6.1 | 0.00 | 0.00 | 0.00 | 82 | 1018.7 |
| 20260507091654 | 55 | 44 | 2.6 | 2.6 | 0.00 | 0.00 | 0.00 | 82 | 1018.6 |
| 20260507091150 | 55 | 35 | 1.7 | 8.7 | 0.00 | 0.00 | 0.00 | 82 | 1018.5 |
| 20260507090646 | 55 | 21 | 3.5 | 4.3 | 0.00 | 0.00 | 0.00 | 82 | 1018.2 |
| 20260507090143 | 55 | 35 | 2.6 | 7.0 | 0.00 | 0.00 | 0.00 | 82 | 1018.4 |
| 20260507085640 | 56 | 6 | 0.9 | 2.6 | 0.00 | 0.00 | 0.00 | 83 | 1018.3 |
| 20260507085137 | 56 | 33 | 6.1 | 7.0 | 0.00 | 0.00 | 0.00 | 83 | 1018.4 |
| 20260507084633 | 56 | 19 | 2.6 | 5.2 | 0.00 | 0.00 | 0.00 | 83 | 1018.6 |
| 20260507084130 | 56 | 11 | 5.2 | 6.1 | 0.00 | 0.00 | 0.00 | 83 | 1018.4 |
| 20260507083627 | 56 | 22 | 2.6 | 7.0 | 0.00 | 0.00 | 0.00 | 83 | 1018.4 |
| 20260507083124 | 56 | 14 | 0.9 | 4.3 | 0.00 | 0.00 | 0.00 | 83 | 1018.7 |
| 20260507082619 | 56 | 57 | 6.1 | 7.0 | 0.00 | 0.00 | 0.00 | 82 | 1018.5 |
| 20260507082116 | 56 | 19 | 1.7 | 4.3 | 0.00 | 0.00 | 0.00 | 82 | 1018.3 |
| 20260507081613 | 56 | 25 | 1.7 | 5.2 | 0.00 | 0.00 | 0.00 | 83 | 1018.4 |
| 20260507081109 | 56 | 21 | 3.5 | 6.1 | 0.00 | 0.00 | 0.00 | 83 | 1018.5 |
| 20260507080606 | 56 | 34 | 1.7 | 4.3 | 0.00 | 0.00 | 0.00 | 83 | 1018.4 |
| 20260507075557 | 56 | 8 | 3.5 | 8.7 | 0.00 | 0.00 | 0.00 | 83 | 1018.2 |
| 20260507075054 | 56 | 19 | 2.6 | 4.3 | 0.00 | 0.00 | 0.00 | 83 | 1018.2 |
| 20260507074551 | 56 | 26 | 1.7 | 5.2 | 0.00 | 0.00 | 0.00 | 83 | 1017.9 |
| 20260507074049 | 56 | 24 | 2.6 | 7.8 | 0.00 | 0.00 | 0.00 | 83 | 1017.9 |
| 20260507073545 | 56 | 30 | 2.6 | 4.3 | 0.00 | 0.00 | 0.00 | 83 | 1017.7 |
| 20260507073041 | 57 | 28 | 0.9 | 4.3 | 0.00 | 0.00 | 0.00 | 82 | 1017.7 |
| 20260507072539 | 57 | 45 | 2.6 | 7.8 | 0.00 | 0.00 | 0.00 | 82 | 1017.6 |
| 20260507072036 | 57 | 4 | 3.5 | 7.0 | 0.00 | 0.00 | 0.00 | 82 | 1017.5 |
| 20260507071534 | 57 | 42 | 4.3 | 8.7 | 0.00 | 0.00 | 0.00 | 82 | 1017.8 |
| 20260507071030 | 57 | 33 | 5.2 | 7.8 | 0.00 | 0.00 | 0.00 | 81 | 1017.6 |
| 20260507070527 | 57 | 56 | 2.6 | 5.2 | 0.00 | 0.00 | 0.00 | 81 | 1017.7 |
| 20260507070024 | 57 | 15 | 4.3 | 6.1 | 0.00 | 0.00 | 0.00 | 81 | 1017.7 |
| 20260507065520 | 57 | 35 | 4.3 | 6.1 | 0.00 | 0.00 | 0.00 | 80 | 1017.5 |
| 20260507065018 | 57 | 43 | 1.7 | 4.3 | 0.00 | 0.00 | 0.00 | 80 | 1017.6 |
| 20260507064515 | 57 | 23 | 0.9 | 6.1 | 0.00 | 0.00 | 0.00 | 80 | 1017.8 |
| 20260507064014 | 57 | 39 | 3.5 | 7.0 | 0.00 | 0.00 | 0.00 | 80 | 1017.8 |
| 20260507063511 | 57 | 25 | 2.6 | 4.3 | 0.00 | 0.00 | 0.00 | 79 | 1017.7 |
| 20260507063008 | 57 | 59 | 3.5 | 5.2 | 0.00 | 0.00 | 0.00 | 79 | 1017.7 |
| 20260507062504 | 57 | 21 | 4.3 | 8.7 | 0.00 | 0.00 | 0.00 | 79 | 1017.6 |
| 20260507062002 | 57 | 49 | 2.6 | 7.0 | 0.00 | 0.00 | 0.00 | 79 | 1017.7 |
| 20260507061500 | 58 | 43 | 2.6 | 7.0 | 0.00 | 0.00 | 0.00 | 79 | 1017.6 |
| 20260507060958 | 58 | 33 | 4.3 | 7.0 | 0.00 | 0.00 | 0.00 | 80 | 1017.5 |
| 20260507060455 | 58 | 22 | 6.1 | 7.8 | 0.00 | 0.00 | 0.00 | 80 | 1017.3 |
| 20260507055951 | 58 | 42 | 3.5 | 5.2 | 0.00 | 0.00 | 0.00 | 80 | 1017.5 |
| 20260507055446 | 58 | 48 | 2.6 | 6.1 | 0.00 | 0.00 | 0.00 | 80 | 1017.5 |
| 20260507054943 | 58 | 30 | 2.6 | 6.1 | 0.00 | 0.00 | 0.00 | 79 | 1017.4 |
| 20260507054439 | 58 | 62 | 4.3 | 9.6 | 0.00 | 0.00 | 0.00 | 79 | 1017.5 |
| 20260507053937 | 59 | 32 | 7.0 | 8.7 | 0.00 | 0.00 | 0.00 | 79 | 1017.6 |
| 20260507053434 | 59 | 24 | 7.0 | 7.0 | 0.00 | 0.00 | 0.00 | 79 | 1017.5 |
| 20260507052933 | 59 | 41 | 5.2 | 9.6 | 0.00 | 0.00 | 0.00 | 79 | 1017.5 |
| 20260507052430 | 59 | 41 | 3.5 | 6.1 | 0.00 | 0.00 | 0.00 | 79 | 1017.5 |
| 20260507051927 | 59 | 36 | 2.6 | 7.0 | 0.00 | 0.00 | 0.00 | 78 | 1017.6 |
| 20260507051424 | 59 | 32 | 4.3 | 7.8 | 0.00 | 0.00 | 0.00 | 78 | 1017.6 |
| 20260507050921 | 59 | 38 | 6.1 | 7.8 | 0.00 | 0.00 | 0.00 | 78 | 1017.6 |
| 20260507050418 | 59 | 76 | 2.6 | 5.2 | 0.00 | 0.00 | 0.00 | 78 | 1017.7 |
| 20260507045915 | 59 | 51 | 4.3 | 6.1 | 0.00 | 0.08 | 0.08 | 78 | 1017.6 |
| 20260507045411 | 59 | 19 | 0.9 | 7.0 | 0.00 | 0.08 | 0.08 | 78 | 1017.7 |
| 20260507044909 | 59 | 20 | 4.3 | 7.8 | 0.00 | 0.08 | 0.08 | 78 | 1017.8 |
| 20260507044405 | 59 | 23 | 3.5 | 8.7 | 0.00 | 0.08 | 0.08 | 78 | 1017.8 |
| 20260507043901 | 59 | 19 | 2.6 | 7.0 | 0.00 | 0.08 | 0.08 | 78 | 1017.9 |
| 20260507043357 | 59 | 26 | 4.3 | 7.8 | 0.00 | 0.08 | 0.08 | 78 | 1018.1 |
| 20260507042854 | 59 | 45 | 4.3 | 12.2 | 0.00 | 0.08 | 0.08 | 78 | 1017.8 |
| 20260507042350 | 59 | 29 | 2.6 | 8.7 | 0.00 | 0.08 | 0.08 | 78 | 1017.9 |
| 20260507041846 | 59 | 22 | 3.5 | 8.7 | 0.00 | 0.08 | 0.08 | 77 | 1018.1 |
| 20260507041343 | 59 | 25 | 2.6 | 8.7 | 0.00 | 0.08 | 0.08 | 77 | 1018.1 |
| 20260507040841 | 60 | 359 | 8.7 | 12.2 | 0.00 | 0.08 | 0.08 | 77 | 1018.3 |
| 20260507040336 | 60 | 25 | 4.3 | 11.3 | 0.00 | 0.08 | 0.08 | 77 | 1018.2 |
| 20260507035833 | 60 | 53 | 2.6 | 7.0 | 0.00 | 0.08 | 0.08 | 77 | 1018.5 |
| 20260507035328 | 60 | 38 | 6.1 | 9.6 | 0.00 | 0.08 | 0.08 | 77 | 1018.2 |
| 20260507034826 | 60 | 29 | 5.2 | 7.0 | 0.00 | 0.08 | 0.08 | 77 | 1018.2 |
| 20260507034323 | 60 | 18 | 6.1 | 12.2 | 0.00 | 0.08 | 0.08 | 77 | 1018.2 |
| 20260507033821 | 60 | 30 | 2.6 | 6.1 | 0.00 | 0.08 | 0.08 | 77 | 1018.2 |
| 20260507033319 | 60 | 36 | 3.5 | 9.6 | 0.00 | 0.08 | 0.08 | 77 | 1018.2 |
| 20260507032815 | 60 | 16 | 0.9 | 7.0 | 0.00 | 0.08 | 0.08 | 77 | 1018.2 |
| 20260507032311 | 60 | 13 | 5.2 | 8.7 | 0.00 | 0.08 | 0.08 | 76 | 1017.9 |
| 20260507031808 | 60 | 22 | 7.0 | 9.6 | 0.00 | 0.08 | 0.08 | 76 | 1017.8 |
| 20260507031305 | 60 | 23 | 5.2 | 8.7 | 0.00 | 0.08 | 0.08 | 76 | 1017.6 |
| 20260507030801 | 60 | 3 | 7.0 | 18.2 | 0.00 | 0.08 | 0.08 | 76 | 1017.7 |
| 20260507030259 | 60 | 12 | 3.5 | 7.8 | 0.00 | 0.08 | 0.08 | 77 | 1017.6 |
| 20260507025756 | 60 | 15 | 2.6 | 6.1 | 0.00 | 0.08 | 0.08 | 77 | 1017.6 |
| 20260507025253 | 60 | 36 | 7.0 | 8.7 | 0.00 | 0.08 | 0.08 | 78 | 1017.3 |
| 20260507024751 | 60 | 30 | 2.6 | 7.8 | 0.00 | 0.08 | 0.08 | 78 | 1017.4 |
| 20260507024248 | 60 | 55 | 9.6 | 12.2 | 0.00 | 0.08 | 0.08 | 78 | 1017.4 |
| 20260507023743 | 60 | 55 | 7.8 | 11.3 | 0.00 | 0.08 | 0.08 | 78 | 1017.2 |